Location: Harwich
(41.7160°N, 69.9939°W)
Time: 07:37:32
(UTC+02:00)

AO-7 - Visible Passes

Search period start: 16 September 2024 00:00
Search period end: 26 September 2024 00:00
Orbit: 1440 x 1458 km, 102.0° (Epoch: 15 September)

Date Brightness Start Highest point End Pass type
(mag) Time Alt. Az. Time Alt. Az. Time Alt. Az.
16 Sep ? 10:54:43 10° NE 11:00:53 22° E 11:06:58 10° SE visible
17 Sep ? 11:46:17 10° NNE 11:54:19 48° ESE 12:02:16 10° S visible
18 Sep ? 10:47:59 10° NE 10:53:39 20° E 10:59:17 10° SE visible
19 Sep ? 01:39:15 10° W 01:40:23 10° W 01:41:31 10° WNW visible
19 Sep ? 11:39:16 10° NNE 11:47:10 43° E 11:54:57 10° S visible
20 Sep ? 10:41:19 10° NE 10:46:25 17° E 10:51:29 10° SE visible
21 Sep ? 01:30:05 10° WSW 01:33:07 12° W 01:36:09 10° WNW visible
21 Sep ? 11:32:18 10° NNE 11:40:00 39° E 11:47:36 10° SSE visible
22 Sep ? 10:34:47 10° ENE 10:39:11 15° E 10:43:34 10° ESE visible
23 Sep ? 01:21:48 10° WSW 01:25:51 14° W 01:29:57 10° WNW visible
23 Sep ? 11:25:20 10° NE 11:32:50 35° E 11:40:14 10° SSE visible
24 Sep ? 10:28:26 10° ENE 10:31:56 13° E 10:35:25 10° ESE visible
25 Sep ? 01:13:48 10° SW 01:18:37 16° W 01:23:27 10° NW visible
25 Sep ? 11:18:24 10° NE 11:25:39 32° E 11:32:48 10° SSE visible
